• In Hungary
  • List of Countries
  • For 7 days
  • Water Temperature
  • Satellite Maps
  • Weather Map
  • News
  • Weather Widgets
  • user-avatar
    Login

    Hourly Weather Karcag

    Today, 21 September, Friday

    Time Temperature Precipitation Wind Pressure Humidity
    00:00 +22°C° 0 mm 1 mps 756 mmHg 53%
    01:00 +21°C° 0 mm 1 mps 756 mmHg 55%
    02:00 +21°C° 0 mm 1 mps 756 mmHg 56%
    03:00 +20°C° 0 mm 1 mps 756 mmHg 58%
    04:00 +20°C° 0 mm 1 mps 756 mmHg 60%
    05:00 +20°C° 0 mm 1 mps 756 mmHg 58%
    06:00 +21°C° 0 mm 1 mps 756 mmHg 56%
    07:00 +22°C° 0 mm 1 mps 756 mmHg 55%
    08:00 +24°C° 0 mm 2 mps 756 mmHg 49%
    09:00 +26°C° 0 mm 2 mps 756 mmHg 43%
    10:00 +28°C° 0 mm 2 mps 755 mmHg 37%
    11:00 +29°C° 0 mm 2 mps 755 mmHg 34%
    12:00 +30°C° 0 mm 2 mps 755 mmHg 30%
    13:00 +31°C° 0 mm 3 mps 754 mmHg 27%
    14:00 +31°C° 0 mm 3 mps 754 mmHg 26%
    15:00 +31°C° 0 mm 3 mps 753 mmHg 26%
    16:00 +31°C° 0 mm 3 mps 753 mmHg 25%
    17:00 +29°C° 0 mm 2 mps 753 mmHg 28%
    18:00 +27°C° 0 mm 2 mps 753 mmHg 30%
    19:00 +25°C° 0 mm 2 mps 753 mmHg 32%
    20:00 +24°C° 0 mm 2 mps 753 mmHg 34%
    21:00 +24°C° 0 mm 2 mps 753 mmHg 35%
    22:00 +22°C° 0 mm 3 mps 753 mmHg 37%
    23:00 +21°C° 0 mm 3 mps 753 mmHg 39%

    Tomorrow, 22 September, Saturday

    Time Temperature Precipitation Wind Pressure Humidity
    00:00 +21°C° 0 mm 3 mps 753 mmHg 42%
    01:00 +20°C° 0 mm 3 mps 753 mmHg 45%
    02:00 +20°C° 0 mm 3 mps 753 mmHg 47%
    03:00 +19°C° 0 mm 3 mps 753 mmHg 48%
    04:00 +19°C° 0 mm 3 mps 753 mmHg 50%
    05:00 +20°C° 0 mm 3 mps 753 mmHg 49%
    06:00 +20°C° 0 mm 3 mps 754 mmHg 48%
    07:00 +21°C° 0 mm 3 mps 754 mmHg 47%
    08:00 +22°C° 0 mm 4 mps 755 mmHg 45%
    09:00 +22°C° 0 mm 5 mps 755 mmHg 43%
    10:00 +23°C° 0 mm 6 mps 756 mmHg 42%
    11:00 +22°C° 0 mm 6 mps 756 mmHg 44%
    12:00 +21°C° 0 mm 6 mps 756 mmHg 46%
    13:00 +20°C° 0 mm 6 mps 757 mmHg 48%
    14:00 +19°C° 0.4 mm 5 mps 757 mmHg 55%
    15:00 +16°C° 0.4 mm 5 mps 757 mmHg 62%
    16:00 +14°C° 0.4 mm 4 mps 758 mmHg 69%
    17:00 +14°C° 0.2 mm 4 mps 758 mmHg 72%
    18:00 +13°C° 0.2 mm 4 mps 758 mmHg 74%
    19:00 +12°C° 0.2 mm 3 mps 759 mmHg 76%
    20:00 +12°C° 0 mm 3 mps 759 mmHg 76%
    21:00 +12°C° 0 mm 3 mps 759 mmHg 76%
    22:00 +12°C° 0 mm 3 mps 760 mmHg 76%
    23:00 +12°C° 0 mm 3 mps 760 mmHg 77%

    Day after tomorrow, 23 September, Sunday

    Time Temperature Precipitation Wind Pressure Humidity
    00:00 +11°C° 0 mm 3 mps 760 mmHg 79%
    01:00 +11°C° 0 mm 3 mps 760 mmHg 80%
    02:00 +11°C° 0 mm 3 mps 760 mmHg 82%
    03:00 +10°C° 0 mm 2 mps 760 mmHg 84%
    04:00 +10°C° 0 mm 2 mps 760 mmHg 86%
    05:00 +10°C° 0 mm 2 mps 760 mmHg 84%
    06:00 +12°C° 0 mm 2 mps 760 mmHg 81%
    07:00 +13°C° 0 mm 2 mps 761 mmHg 78%
    08:00 +14°C° 0 mm 3 mps 761 mmHg 69%
    09:00 +16°C° 0 mm 3 mps 761 mmHg 59%
    10:00 +18°C° 0 mm 3 mps 761 mmHg 49%
    11:00 +19°C° 0 mm 3 mps 761 mmHg 44%
    12:00 +21°C° 0 mm 4 mps 760 mmHg 39%
    13:00 +22°C° 0 mm 4 mps 760 mmHg 33%
    14:00 +21°C° 0 mm 4 mps 759 mmHg 35%
    15:00 +21°C° 0 mm 3 mps 759 mmHg 37%
    16:00 +21°C° 0 mm 3 mps 759 mmHg 38%
    17:00 +19°C° 0 mm 3 mps 758 mmHg 42%
    18:00 +18°C° 0 mm 2 mps 758 mmHg 46%
    19:00 +18°C° 0 mm 1 mps 758 mmHg 50%
    20:00 +17°C° 0 mm 2 mps 758 mmHg 49%
    21:00 +16°C° 0 mm 2 mps 757 mmHg 49%
    22:00 +16°C° 0 mm 3 mps 757 mmHg 49%
    23:00 +16°C° 0 mm 3 mps 756 mmHg 48%

    24 September, Monday

    Time Temperature Precipitation Wind Pressure Humidity
    00:00 +15°C° 0 mm 4 mps 755 mmHg 48%
    01:00 +15°C° 0 mm 4 mps 755 mmHg 47%
    02:00 +16°C° 0 mm 5 mps 753 mmHg 46%
    03:00 +16°C° 0 mm 5 mps 752 mmHg 46%
    04:00 +16°C° 0 mm 5 mps 751 mmHg 46%
    05:00 +17°C° 0 mm 6 mps 751 mmHg 45%
    06:00 +18°C° 0 mm 7 mps 750 mmHg 44%
    07:00 +20°C° 0 mm 7 mps 749 mmHg 43%
    08:00 +21°C° 0.2 mm 8 mps 749 mmHg 48%
    09:00 +22°C° 0.2 mm 9 mps 749 mmHg 53%
    10:00 +24°C° 0.2 mm 9 mps 749 mmHg 57%
    11:00 +22°C° 0.7 mm 9 mps 749 mmHg 56%
    12:00 +19°C° 0.7 mm 9 mps 750 mmHg 54%
    13:00 +18°C° 0.7 mm 9 mps 750 mmHg 53%
    14:00 +18°C° 0.1 mm 9 mps 751 mmHg 49%
    15:00 +18°C° 0.1 mm 10 mps 752 mmHg 44%
    16:00 +18°C° 0.1 mm 10 mps 753 mmHg 40%
    17:00 +16°C° 0 mm 8 mps 754 mmHg 43%
    18:00 +15°C° 0 mm 6 mps 755 mmHg 45%
    19:00 +13°C° 0 mm 5 mps 756 mmHg 48%
    20:00 +13°C° 0 mm 5 mps 757 mmHg 48%
    21:00 +12°C° 0 mm 5 mps 758 mmHg 48%
    22:00 +11°C° 0 mm 6 mps 759 mmHg 47%
    23:00 +10°C° 0 mm 6 mps 759 mmHg 49%

    25 September, Tuesday

    Time Temperature Precipitation Wind Pressure Humidity
    00:00 +10°C° 0 mm 6 mps 760 mmHg 51%
    01:00 +10°C° 0 mm 6 mps 760 mmHg 52%
    02:00 +9°C° 0 mm 5 mps 761 mmHg 53%
    03:00 +9°C° 0 mm 5 mps 761 mmHg 54%
    04:00 +8°C° 0 mm 5 mps 761 mmHg 55%
    05:00 +8°C° 0 mm 5 mps 762 mmHg 54%
    06:00 +9°C° 0 mm 5 mps 762 mmHg 53%
    07:00 +9°C° 0 mm 6 mps 763 mmHg 52%
    08:00 +10°C° 0 mm 6 mps 763 mmHg 46%
    09:00 +13°C° 0 mm 6 mps 764 mmHg 39%
    10:00 +14°C° 0 mm 6 mps 764 mmHg 33%
    11:00 +14°C° 0 mm 5 mps 764 mmHg 31%
    12:00 +15°C° 0 mm 5 mps 764 mmHg 30%
    13:00 +15°C° 0 mm 5 mps 764 mmHg 28%
    14:00 +15°C° 0 mm 5 mps 764 mmHg 28%
    15:00 +15°C° 0 mm 5 mps 764 mmHg 28%
    16:00 +15°C° 0 mm 4 mps 764 mmHg 28%
    17:00 +13°C° 0 mm 3 mps 764 mmHg 31%
    18:00 +12°C° 0 mm 3 mps 764 mmHg 34%
    19:00 +12°C° 0 mm 2 mps 764 mmHg 37%
    20:00 +10°C° 0 mm 2 mps 764 mmHg 39%
    21:00 +10°C° 0 mm 2 mps 764 mmHg 41%
    22:00 +9°C° 0 mm 3 mps 764 mmHg 43%
    23:00 +9°C° 0 mm 3 mps 764 mmHg 44%

    26 September, Wednesday

    Time Temperature Precipitation Wind Pressure Humidity
    00:00 +8°C° 0 mm 4 mps 763 mmHg 46%
    01:00 +8°C° 0 mm 4 mps 763 mmHg 48%
    02:00 +8°C° 0 mm 4 mps 763 mmHg 49%
    03:00 +9°C° 0 mm 5 mps 762 mmHg 51%
    04:00 +9°C° 0 mm 5 mps 762 mmHg 53%
    05:00 +9°C° 0.3 mm 6 mps 761 mmHg 57%
    06:00 +9°C° 0.3 mm 6 mps 761 mmHg 60%
    07:00 +9°C° 0.3 mm 6 mps 761 mmHg 64%
    08:00 +10°C° 0.1 mm 6 mps 762 mmHg 56%
    09:00 +13°C° 0.1 mm 6 mps 762 mmHg 47%
    10:00 +15°C° 0.1 mm 6 mps 762 mmHg 39%
    11:00 +15°C° 0 mm 6 mps 762 mmHg 39%
    12:00 +15°C° 0 mm 5 mps 762 mmHg 39%
    13:00 +15°C° 0 mm 5 mps 762 mmHg 40%
    14:00 +15°C° 0 mm 6 mps 763 mmHg 40%
    15:00 +15°C° 0 mm 6 mps 763 mmHg 40%
    16:00 +15°C° 0 mm 6 mps 763 mmHg 40%
    17:00 +14°C° 0 mm 5 mps 763 mmHg 45%
    18:00 +12°C° 0 mm 3 mps 764 mmHg 50%
    19:00 +12°C° 0 mm 2 mps 765 mmHg 55%
    20:00 +10°C° 0 mm 2 mps 765 mmHg 57%
    21:00 +10°C° 0 mm 2 mps 765 mmHg 60%
    22:00 +9°C° 0 mm 2 mps 766 mmHg 63%
    23:00 +9°C° 0 mm 2 mps 766 mmHg 65%
    Show more